Sandspit, British Columbia

9:02 PM PDT on May 28, 2017 (GMT -0700)
Sandspit

Weather History for CYZP - June, 2013

Change the Weather History Date:

Sunday, June 30, 2013

  Actual Average Record
Temperature  
Mean Temperature 54 °F -  
Max Temperature 57 °F 62 °F 68 °F (2015)
Min Temperature 51 °F 52 °F 44 °F (2000)
Degree Days  
Heating Degree Days 11    
Growing Degree Days 4 (Base 50)    
Moisture  
Dew Point 53 °F    
Average Humidity 96    
Maximum Humidity 100    
Minimum Humidity 88    
Precipitation  
Precipitation 0.00 in 0.06 in - ()
Sea Level Pressure  
Sea Level Pressure 30.03 in    
Wind  
Wind Speed 6 mph ()    
Max Wind Speed 17 mph    
Max Gust Speed 24 mph    
Visibility 5.3 miles    
Events Fog , Rain    
Averages and records for this station are not official NWS values.
T = Trace of Precipitation, MM = Missing Value Source: Averaged Metar Reports

Daily Weather History Graph

Daily Weather History Graph

Search for Another Location

Airport or City:

Trip Planner

Search our weather history database for the weather conditions in past years. The results will help you decide how hot, cold, wet, or windy it might be!

Date:

Astronomy

Jun. 30, 2013 Rise Set
Actual Time 5:23 AM PDT 10:17 PM PDT
Civil Twilight 4:32 AM PDT 11:09 PM PDT
Nautical Twilight 3:03 AM PDT 12:37 AM PDT
Astronomical Twilight Sun does not set Sun does not set
Moon 1:09 AM PDT (6/30) 3:01 PM PDT (6/30)
Length of Visible Light 18h 36m
Length of Day
16h 53m
Last Quarter, 44% of the Moon is Illuminated
Jun 30
Last Quarter
Jul 8
New
Jul 15
First Quarter
Jul 22
Full
Jul 29
Last Quarter

Hourly Weather History & Observations

Time (PDT) Temp. Dew Point Humidity Pressure Visibility Wind Dir Wind Speed Gust Speed Precip Events Conditions
12:00 AM 53.6 °F 53.6 °F 100% 30.04 in 9.0 mi SE 17.3 mph 24.2 mph N/A   Overcast
1:00 AM 53.6 °F 53.6 °F 100% 30.03 in 9.0 mi SSE 6.9 mph - N/A   Overcast
1:09 AM 53.6 °F 53.6 °F 100% 30.03 in 9.0 mi SSE 8.1 mph - N/A   Overcast
2:00 AM 52 °F 51 °F 95% 30.02 in - SSE 2.3 mph - -  
2:00 AM 53.6 °F 51.8 °F 94% 30.03 in 9.0 mi SE 6.9 mph - N/A   Overcast
2:55 AM 53.6 °F 53.6 °F 100% 30.02 in 9.0 mi SE 4.6 mph - N/A   Mostly Cloudy
3:00 AM 53.6 °F 53.6 °F 100% 30.02 in 9.0 mi SE 8.1 mph - N/A   Overcast
3:27 AM 55.4 °F 53.6 °F 94% 30.02 in 9.0 mi SSE 5.8 mph - N/A   Overcast
4:00 AM 53.6 °F 53.6 °F 100% 30.02 in 9.0 mi SSE 4.6 mph - N/A   Overcast
4:05 AM 53.6 °F 53.6 °F 100% 30.03 in 9.0 mi SSE 4.6 mph - N/A   Overcast
4:16 AM 53.6 °F 53.6 °F 100% 30.02 in 9.0 mi ESE 9.2 mph - N/A   Overcast
4:48 AM 53.6 °F 53.6 °F 100% 30.02 in 5.0 mi ESE 10.4 mph - N/A   Overcast
4:51 AM 53.6 °F 53.6 °F 100% 30.02 in 2.5 mi ESE 10.4 mph - N/A   Overcast
4:59 AM 53.6 °F 53.6 °F 100% 30.02 in 3.0 mi ESE 11.5 mph - N/A   Overcast
5:00 AM 53 °F 53 °F 98% 30.01 in - ESE 8.1 mph - -  
5:00 AM 53.6 °F 53.6 °F 100% 30.02 in 3.0 mi ESE 10.4 mph - N/A   Overcast
5:03 AM 53.6 °F 53.6 °F 100% 30.02 in 2.0 mi ESE 10.4 mph - N/A   Overcast
5:04 AM 53.6 °F 53.6 °F 100% 30.02 in 1.2 mi ESE 10.4 mph - N/A   Overcast
5:07 AM 53.6 °F 53.6 °F 100% 30.02 in 0.8 mi ESE 10.4 mph - N/A   Overcast
5:25 AM 53.6 °F 53.6 °F 100% 30.01 in 1.0 mi SSE 4.6 mph - N/A   Overcast
5:33 AM 53.6 °F 53.6 °F 100% 30.00 in 0.8 mi SSE 2.3 mph - N/A   Overcast
5:38 AM 53.6 °F 53.6 °F 100% 30.00 in 1.0 mi South 2.3 mph - N/A   Overcast
5:41 AM 53.6 °F 51.8 °F 94% 30.01 in 2.0 mi SSE 3.5 mph - N/A   Overcast
5:42 AM 53.6 °F 51.8 °F 94% 30.01 in 3.0 mi SSE 3.5 mph - N/A   Overcast
5:43 AM 53.6 °F 51.8 °F 94% 30.01 in 6.0 mi SSE 3.5 mph - N/A   Overcast
6:00 AM 53.6 °F 51.8 °F 94% 30.01 in 9.0 mi SE 3.5 mph - N/A   Overcast
6:02 AM 53.6 °F 53.6 °F 100% 30.01 in 5.0 mi ESE 4.6 mph - N/A   Overcast
6:03 AM 53.6 °F 53.6 °F 100% 30.01 in 2.5 mi ESE 4.6 mph - N/A   Overcast
6:08 AM 53.6 °F 53.6 °F 100% 30.01 in 1.8 mi ESE 5.8 mph - N/A   Overcast
6:12 AM 53.6 °F 53.6 °F 100% 30.01 in 0.8 mi ESE 5.8 mph - N/A   Overcast
6:35 AM 53.6 °F 53.6 °F 100% 30.01 in 1.0 mi ESE 6.9 mph - N/A   Overcast
6:54 AM 53.6 °F 53.6 °F 100% 30.01 in 0.8 mi East 10.4 mph - N/A   Overcast
7:00 AM 53.6 °F 53.6 °F 100% 30.00 in 0.8 mi East 9.2 mph - N/A   Overcast
7:10 AM 53.6 °F 51.8 °F 94% 30.01 in 1.0 mi ESE 10.4 mph - N/A   Overcast
7:14 AM 53.6 °F 51.8 °F 94% 30.01 in 2.0 mi ESE 9.2 mph - N/A   Overcast
7:24 AM 53.6 °F 51.8 °F 94% 30.01 in 3.0 mi SE 6.9 mph - N/A   Overcast
7:38 AM 53.6 °F 51.8 °F 94% 30.01 in 7.0 mi South 5.8 mph - N/A   Overcast
7:42 AM 53.6 °F 51.8 °F 94% 30.01 in 5.0 mi South 4.6 mph - N/A   Overcast
7:55 AM 53.6 °F 51.8 °F 94% 30.02 in 7.0 mi Variable 2.3 mph - N/A   Overcast
8:00 AM 53 °F 52 °F 97% 30.01 in - ESE 2.3 mph - -  
8:00 AM 53.6 °F 51.8 °F 94% 30.02 in 9.0 mi East 3.5 mph - N/A   Overcast
8:35 AM 53.6 °F 51.8 °F 94% 30.03 in 5.0 mi East 5.8 mph - N/A   Overcast
8:44 AM 53.6 °F 53.6 °F 100% 30.03 in 8.0 mi East 6.9 mph - N/A   Overcast
9:00 AM 53.6 °F 53.6 °F 100% 30.03 in 9.0 mi East 5.8 mph - N/A   Overcast
10:00 AM 53.6 °F 51.8 °F 94% 30.04 in 9.0 mi ESE 6.9 mph - N/A   Overcast
10:03 AM 53.6 °F 51.8 °F 94% 30.04 in 9.0 mi ESE 6.9 mph - N/A Rain Light Rain
10:49 AM 55.4 °F 53.6 °F 94% 30.04 in 9.0 mi ESE 4.6 mph - N/A   Overcast
10:52 AM 55.4 °F 53.6 °F 94% 30.04 in 9.0 mi ESE 3.5 mph - N/A Rain Light Rain
10:55 AM 55.4 °F 51.8 °F 88% 30.04 in 9.0 mi East 3.5 mph - N/A Rain Light Rain
10:58 AM 55.4 °F 53.6 °F 94% 30.04 in 9.0 mi East 4.6 mph - N/A Rain Light Rain
11:00 AM 55 °F 53 °F 92% 30.03 in - East 3.5 mph - -  
11:00 AM 55.4 °F 53.6 °F 94% 30.04 in 9.0 mi East 3.5 mph - N/A Rain Light Rain
11:18 AM 55.4 °F 53.6 °F 94% 30.03 in 9.0 mi Variable 2.3 mph - N/A   Overcast
11:32 AM 55.4 °F 53.6 °F 94% 30.04 in 9.0 mi ENE 3.5 mph - N/A Rain Light Rain
12:00 PM 55.4 °F 53.6 °F 94% 30.04 in 9.0 mi NE 4.6 mph - N/A Rain Light Rain
12:09 PM 55.4 °F 53.6 °F 94% 30.04 in 8.0 mi NE 5.8 mph - N/A   Overcast
12:44 PM 55.4 °F 53.6 °F 94% 30.05 in 9.0 mi ENE 6.9 mph - N/A   Overcast
12:58 PM 55.4 °F 53.6 °F 94% 30.05 in 5.0 mi ENE 6.9 mph - N/A   Overcast
1:00 PM 55.4 °F 53.6 °F 94% 30.05 in 5.0 mi ENE 6.9 mph - N/A   Overcast
1:02 PM 55.4 °F 53.6 °F 94% 30.05 in 4.0 mi ENE 6.9 mph - N/A   Overcast
1:11 PM 55.4 °F 53.6 °F 94% 30.05 in 2.5 mi ENE 6.9 mph - N/A   Overcast
1:17 PM 55.4 °F 53.6 °F 94% 30.05 in 1.8 mi ENE 5.8 mph - N/A Rain Light Rain
1:18 PM 55.4 °F 53.6 °F 94% 30.05 in 1.8 mi ENE 5.8 mph - N/A Rain Light Rain
1:19 PM 55.4 °F 53.6 °F 94% 30.05 in 1.8 mi ENE 5.8 mph - N/A Rain Light Rain
1:20 PM 55.4 °F 53.6 °F 94% 30.05 in 1.8 mi ENE 5.8 mph - N/A Rain Light Rain
1:21 PM 55.4 °F 53.6 °F 94% 30.05 in 1.8 mi ENE 5.8 mph - N/A Rain Light Rain
1:22 PM 55.4 °F 53.6 °F 94% 30.05 in 1.8 mi ENE 5.8 mph - N/A Rain Light Rain
1:27 PM 55.4 °F 53.6 °F 94% 30.05 in 2.0 mi ENE 5.8 mph - N/A Rain Light Rain
1:39 PM 55.4 °F 53.6 °F 94% 30.06 in 2.2 mi East 6.9 mph - N/A Rain Light Rain
1:42 PM 55.4 °F 53.6 °F 94% 30.06 in 2.2 mi East 5.8 mph - N/A Rain Light Rain
1:44 PM 55.4 °F 53.6 °F 94% 30.06 in 2.2 mi East 6.9 mph - N/A Rain Light Rain
1:55 PM 55.4 °F 53.6 °F 94% 30.06 in 2.0 mi ENE 6.9 mph - N/A   Overcast
2:00 PM 55 °F 54 °F 96% 30.05 in - East 4.6 mph - -  
2:00 PM 55.4 °F 53.6 °F 94% 30.06 in 2.2 mi East 5.8 mph - N/A   Overcast
2:04 PM 55.4 °F 53.6 °F 94% 30.06 in 3.0 mi East 5.8 mph - N/A   Overcast
2:13 PM 55.4 °F 53.6 °F 94% 30.06 in 6.0 mi East 5.8 mph - N/A   Overcast
2:18 PM 55.4 °F 55.4 °F 100% 30.06 in 9.0 mi East 5.8 mph - N/A   Overcast
2:24 PM 55.4 °F 55.4 °F 100% 30.06 in 9.0 mi East 6.9 mph - N/A   Overcast
2:32 PM 57.2 °F 55.4 °F 94% 30.06 in 5.0 mi East 6.9 mph - N/A   Overcast
2:39 PM 57.2 °F 55.4 °F 94% 30.06 in 6.0 mi East 5.8 mph - N/A   Overcast
3:00 PM 57.2 °F 55.4 °F 94% 30.06 in 9.0 mi East 6.9 mph - N/A   Overcast
3:36 PM 57.2 °F 53.6 °F 88% 30.06 in 9.0 mi ESE 8.1 mph - N/A   Overcast
3:41 PM 57.2 °F 55.4 °F 94% 30.06 in 9.0 mi ESE 6.9 mph - N/A   Overcast
4:00 PM 57.2 °F 53.6 °F 88% 30.06 in 9.0 mi ESE 6.9 mph - N/A   Overcast
4:02 PM 57.2 °F 53.6 °F 88% 30.06 in 9.0 mi East 6.9 mph - N/A   Overcast
5:00 PM 57 °F 54 °F 88% 30.04 in - ESE 5.8 mph - -  
5:00 PM 57.2 °F 53.6 °F 88% 30.05 in 9.0 mi ESE 5.8 mph - N/A   Overcast
5:47 PM 57.2 °F 53.6 °F 88% 30.05 in 9.0 mi ESE 8.1 mph - N/A   Overcast
6:00 PM 57.2 °F 53.6 °F 88% 30.05 in 9.0 mi ESE 8.1 mph - N/A   Overcast
7:00 PM 57.2 °F 53.6 °F 88% 30.04 in 9.0 mi SE 8.1 mph - N/A   Overcast
8:00 PM 56 °F 54 °F 90% 30.02 in - SE 4.6 mph - -  
8:00 PM 57.2 °F 53.6 °F 88% 30.03 in 9.0 mi ESE 5.8 mph - N/A   Overcast
8:27 PM 55.4 °F 53.6 °F 94% 30.02 in 9.0 mi SE 6.9 mph - N/A   Overcast
8:38 PM 55.4 °F 53.6 °F 94% 30.02 in 9.0 mi SE 6.9 mph - N/A   Overcast
9:00 PM 55.4 °F 53.6 °F 94% 30.02 in 9.0 mi ESE 4.6 mph - N/A   Overcast
9:32 PM 53.6 °F 53.6 °F 100% 30.02 in 4.0 mi ENE 5.8 mph - N/A   Overcast
9:35 PM 53.6 °F 53.6 °F 100% 30.02 in 1.8 mi ENE 5.8 mph - N/A   Overcast
9:37 PM 53.6 °F 53.6 °F 100% 30.02 in 0.8 mi ENE 4.6 mph - N/A   Overcast
10:00 PM 53.6 °F 53.6 °F 100% 30.02 in 0.1 mi ENE 2.3 mph - N/A Fog Fog
11:00 PM 53 °F 53 °F 99% 30.02 in - East 1.2 mph - -  
11:00 PM 53.6 °F 53.6 °F 100% 30.03 in 0.2 mi SE 3.5 mph - N/A Fog Fog
11:28 PM 53.6 °F 53.6 °F 100% 30.03 in 1.0 mi Variable 2.3 mph - N/A   Mist
11:36 PM 53.6 °F 53.6 °F 100% 30.03 in 2.0 mi East 2.3 mph - N/A   Overcast
11:45 PM 53.6 °F 53.6 °F 100% 30.03 in 1.5 mi ESE 2.3 mph - N/A   Overcast